sat.trackr.live / text

‹ back to catalog

LIZZIESAT-1 (LS-1)

NORAD 59132 · 2024-043AL

PAYLOAD ACTIVE UNKNOWN

§ Identity

Operator
Country
US
Launch date
2024-03-04
Launch site
AFWTR
Launch vehicle
Mass (kg)
RCS (m²)

External: N2YO · Heavens-Above · Gunter

§ Orbital elements

Epoch: 2026-09-22T14:56:09.525408Z

Period
94.24 min
Inclination
97.5770°
Eccentricity
0.0009099
Mean motion
15.28072003 rev/d
Perigee alt
475.3 km
Apogee alt
487.8 km
Semi-major
6,859.7 km
B*
1.1106e-4
RAAN
42.9111°
Arg perigee
260.9018°
Mean anomaly
99.1192°
Rev number
14,181

§ Raw data

LIZZIESAT-1 (LS-1)1 59132U 24043AL  26265.62233247  .00002965  00000+0  11106-3 0  99962 59132  97.5770  42.9111 0009099 260.9018  99.1192 15.28072003141812

JSON: /api/v1/satellites/59132 · /tle

For live sub-satellite position, see the globe view (requires WebGL).

§ Visibility from observer

Set your observer location to see the next 7 days of passes ≥ 10°. The values pass through the URL so the page stays shareable.

No JS? Fill the form by hand. The geolocation button needs JavaScript.

§ Radio — SatNOGS DB

ModeDescriptionDownlinkUplink
FM Mode S - Downlink 2.201 GHz
FM Mode S - Downlink 2.283 GHz
FM Mode S - Downlink 2.263 GHz
FSK Mode U - Downlink 400.504 MHz
FM Mode X - Downlink 8.045 GHz
FM Mode X - Downlink 8.378 GHz
BPSK S-band telemetry 2.260 GHz

7 transmitters · refreshed weekly from db.satnogs.org